Content
SEND FEEDBACK

Daily
Averages
Monthly
Summary
United States of America

ELIZABETH, MINNESOTA


Home > North America > United States > Minnesota
Elevation: 1223 feet     Latitude: 46 16N     Longitude: 096 04W

WEATHER
 
SELECT A DAY
Number of Records: 458,686;   Date Range: 1/1/95 - 8/12/14
 
SHARE

PRINT THIS DATA

[ ← Previous Day ]
WEATHER ALMANAC - JANUARY 17, 2014
[ Next Day → ]
[ °C ]   °F
Weather ElementAverageHighLow
Temperature-0.5 °F17.6 °F (11:53 pm)-14.8 °F (8:13 am)
Dewpoint-7.4 °F12.2 °F (11:33 pm)-20.2 °F (8:13 am)
Humidity72.7 %86 % (11:33 pm)62 % (6:53 pm)
Barometer29.98 in30.14 in (6:33 am)29.54 in (11:53 pm)
Wind Speed9.8 mph26.5 mph (1:13 am)
Wind Gust32.2 mph (1:13 am)
Weather ElementAverage
Visibility8.7 mi
Wind DirectionSSW (203.4 °)

Weather ElementTotal
Precipitation---
Heating Degree Days63.6 (Base 65)
Averaged from 71 records on January 17, 2014
WEATHER CONDITIONS BREAKOUT
WIND DIRECTION BREAKOUT
WEATHER BY HOUR - JANUARY 17, 2014
[ °C ]   °F
Local TimeTemperatureDewpointHumidityBarometerVisibilityWind DirectionWind SpeedGust SpeedPrecipitationEventsConditions
12:34 AM-2.2 °F-9.4 °F71 %30.08 in10.0 miNNW (340°)23.0 mph28.8 mphClear
12:53 AM-2.2 °F-9.4 °F71 %30.08 in10.0 miNNW (340°)23.0 mph31.1 mphClear
1:13 AM-2.2 °F-9.4 °F71 %30.09 in10.0 miNNW (340°)26.5 mph32.2 mphClear
1:33 AM-4.0 °F-9.4 °F78 %30.09 in10.0 miNNW (340°)23.0 mph29.9 mphClear
1:53 AM-4.0 °F-11.2 °F71 %30.09 in10.0 miNNW (340°)23.0 mph32.2 mphClear
2:14 AM-4.0 °F-11.2 °F71 %30.10 in10.0 miNorth (350°)16.1 mph26.5 mphClear
2:33 AM-5.8 °F-11.2 °F77 %30.10 in10.0 miNorth (350°)16.1 mph24.2 mphClear
2:53 AM-5.8 °F-11.2 °F77 %30.11 in10.0 miNNW (340°)17.3 mph24.2 mphClear
3:14 AM-5.8 °F-11.2 °F77 %30.11 in10.0 miNorth (350°)15.0 mphClear
3:33 AM-5.8 °F-13.0 °F71 %30.12 in10.0 miNNW (340°)12.7 mphClear
3:53 AM-7.6 °F-13.0 °F77 %30.12 in10.0 miNNW (340°)15.0 mphClear
4:14 AM-7.6 °F-13.0 °F77 %30.12 in10.0 miNorth (350°)11.5 mphClear
4:33 AM-7.6 °F-14.8 °F71 %30.12 in10.0 miNNW (340°)9.2 mphClear
4:53 AM-7.6 °F-14.8 °F71 %30.12 in10.0 miNNW (330°)10.4 mphClear
5:14 AM-7.6 °F-14.8 °F71 %30.13 in10.0 miNNW (330°)11.5 mphClear
5:33 AM-9.4 °F-14.8 °F77 %30.12 in10.0 miNorth (350°)8.1 mphClear
5:53 AM-9.4 °F-14.8 °F77 %30.12 in10.0 miNNW (340°)5.8 mphClear
6:13 AM-11.2 °F-16.6 °F77 %30.13 in10.0 miNNW (330°)6.9 mphClear
6:33 AM-9.4 °F-16.6 °F71 %30.14 in10.0 miNW (320°)6.9 mphClear
6:53 AM-11.2 °F-18.4 °F70 %30.13 in10.0 miNNW (330°)6.9 mphClear
7:13 AM-11.2 °F-18.4 °F70 %30.13 in10.0 miNorth (360°)3.5 mphClear
7:33 AM-13.0 °F-18.4 °F77 %30.12 in10.0 miNNW (330°)3.5 mphClear
7:53 AM-13.0 °F-18.4 °F77 %30.12 in10.0 miWNW (300°)4.6 mphClear
8:13 AM-14.8 °F-20.2 °F77 %30.11 in10.0 miCalmClear
8:33 AM-14.8 °F-20.2 °F77 %30.12 in10.0 miWNW (290°)4.6 mphClear
8:53 AM-13.0 °F-18.4 °F77 %30.12 in10.0 miWest (280°)5.8 mphClear
9:13 AM-11.2 °F-18.4 °F70 %30.11 in10.0 miCalmClear
9:33 AM-11.2 °F-16.6 °F77 %30.12 in5.0 miCalmHaze
9:53 AM-9.4 °F-14.8 °F77 %30.11 in10.0 miCalmClear
10:13 AM-9.4 °F-14.8 °F77 %30.11 in10.0 miCalmClear
10:33 AM-7.6 °F-13.0 °F77 %30.12 in10.0 miCalmClear
10:53 AM-5.8 °F-11.2 °F77 %30.12 in10.0 miCalmClear
11:13 AM-5.8 °F-11.2 °F77 %30.11 in10.0 miNNW (330°)4.6 mphClear
11:33 AM-2.2 °F-11.2 °F66 %30.10 in10.0 miNW (320°)3.5 mphClear
11:53 AM-2.2 °F-11.2 °F66 %30.09 in10.0 miWNW (300°)3.5 mphClear
12:13 PM-2.2 °F-9.4 °F71 %30.08 in10.0 miCalmClear
12:33 PM-2.2 °F-9.4 °F71 %30.07 in10.0 miWSW (250°)3.5 mphClear
12:53 PM-0.4 °F-9.4 °F66 %30.06 in10.0 miCalmClear
1:13 PM-0.4 °F-9.4 °F66 %30.04 in10.0 miCalmClear
1:33 PM-0.4 °F-9.4 °F66 %30.02 in10.0 miCalmClear
1:54 PM1.4 °F-7.6 °F66 %30.02 in10.0 miSW (220°)3.5 mphClear
2:13 PM1.4 °F-7.6 °F66 %30.01 in10.0 miSSW (200°)4.6 mphClear
2:33 PM1.4 °F-5.8 °F72 %30.00 in10.0 miSouth (170°)5.8 mphClear
2:54 PM3.2 °F-5.8 °F66 %29.99 in10.0 miSouth (170°)6.9 mphClear
3:13 PM3.2 °F-5.8 °F66 %29.99 in10.0 miSouth (170°)4.6 mphClear
3:33 PM3.2 °F-5.8 °F66 %29.98 in10.0 miSSE (160°)5.8 mphClear
3:54 PM3.2 °F-5.8 °F66 %29.98 in10.0 miSouth (170°)4.6 mphClear
4:13 PM3.2 °F-5.8 °F66 %29.98 in10.0 miSSE (150°)6.9 mphClear
4:33 PM3.2 °F-5.8 °F66 %29.97 in10.0 miSSE (160°)10.4 mphClear
4:54 PM3.2 °F-5.8 °F66 %29.95 in10.0 miSSE (150°)11.5 mphClear
5:13 PM3.2 °F-4.0 °F72 %29.93 in10.0 miSSE (150°)11.5 mphClear
5:33 PM3.2 °F-4.0 °F72 %29.92 in10.0 miSSE (150°)11.5 mphClear
5:53 PM3.2 °F-2.2 °F78 %29.92 in10.0 miSSE (150°)10.4 mphClear
6:13 PM6.8 °F-2.2 °F67 %29.91 in10.0 miSE (140°)9.2 mphScattered Clouds
6:33 PM6.8 °F-2.2 °F67 %29.89 in10.0 miSSE (150°)9.2 mphMostly Cloudy
6:53 PM8.6 °F-2.2 °F62 %29.87 in10.0 miSE (140°)12.7 mphScattered Clouds
7:13 PM8.6 °F-0.4 °F67 %29.86 in10.0 miSSE (150°)11.5 mphScattered Clouds
7:33 PM8.6 °F-0.4 °F67 %29.83 in10.0 miSSE (150°)15.0 mphScattered Clouds
7:53 PM8.6 °F1.4 °F73 %29.81 in7.0 miSSE (160°)15.0 mphSnowLight Snow
8:13 PM10.4 °F1.4 °F67 %29.78 in5.0 miSSE (150°)15.0 mphHaze
8:33 PM10.4 °F3.2 °F73 %29.76 in4.0 miSSE (150°)16.1 mphSnowLight Snow
8:53 PM10.4 °F3.2 °F73 %29.74 in4.0 miSSE (150°)17.3 mphSnowLight Snow
9:13 PM12.2 °F6.8 °F79 %29.72 in5.0 miSSE (160°)17.3 mphSnowLight Snow
9:33 PM12.2 °F6.8 °F79 %29.71 in4.0 miSSE (160°)16.1 mphSnowLight Snow
9:53 PM12.2 °F6.8 °F79 %29.67 in3.0 miSSE (150°)17.3 mphSnowLight Snow
10:13 PM12.2 °F8.6 °F85 %29.64 in2.0 miSSE (150°)17.3 mphSnowLight Snow
10:34 PM14.0 °F8.6 °F79 %29.62 in2.0 miSSE (150°)17.3 mphSnowLight Snow
10:53 PM15.8 °F10.4 °F79 %29.60 in3.0 miSSE (150°)15.0 mphSnowLight Snow
11:13 PM15.8 °F10.4 °F79 %29.58 in2.5 miSSE (150°)18.4 mphSnowLight Snow
11:33 PM15.8 °F12.2 °F86 %29.56 in2.5 miSSE (160°)18.4 mphSnowLight Snow
11:53 PM17.6 °F12.2 °F79 %29.54 in2.0 miSSE (150°)17.3 mph21.9 mphSnowLight Snow
Hourly data recorded from KFFM, located miles away from Elizabeth, Minnesota







STORIES FROM OUR PARTNERS